Time,TemperatureF,DewpointF,PressureIn,WindDirection,WindDirectionDegrees,WindSpeedMPH,WindSpeedGustMPH,Humidity,HourlyPrecipIn,Conditions,Clouds,dailyrainin,SoftwareType,DateUTC
2013-12-07 00:01:00,39.9,33.9,30.00,NNW,338,4.7,4.7,79,0.03,RA,,0.00,WeatherDisplay:10.37,2013-12-07 05:01:00,
2013-12-07 00:02:00,39.9,33.9,30.00,North,0,2.2,5.8,79,0.03,RA,,0.00,WeatherDisplay:10.37,2013-12-07 05:02:00,
2013-12-07 00:03:00,39.9,33.9,30.00,NW,315,2.4,3.5,79,0.03,RA,,0.01,WeatherDisplay:10.37,2013-12-07 05:03:00,
2013-12-07 00:08:00,39.7,33.8,30.00,North,0,2.6,9.2,79,0.04,RA,,0.01,WeatherDisplay:10.37,2013-12-07 05:08:00,
2013-12-07 00:13:00,39.6,33.6,29.99,NNW,338,4.3,5.8,79,0.04,RA,,0.01,WeatherDisplay:10.37,2013-12-07 05:13:00,
2013-12-07 00:17:00,39.6,33.6,29.99,NNW,338,7.1,7.1,79,0.04,CLR,,0.01,WeatherDisplay:10.37,2013-12-07 05:17:00,
2013-12-07 00:22:00,39.4,33.4,30.00,SW,225,2.2,4.6,79,0.05,RA,,0.02,WeatherDisplay:10.37,2013-12-07 05:22:00,
2013-12-07 00:27:00,39.2,33.2,29.98,North,0,3.3,5.8,79,0.05,RA,,0.02,WeatherDisplay:10.37,2013-12-07 05:27:00,
2013-12-07 00:32:00,39.2,33.2,29.97,NW,315,0.5,3.5,79,0.05,CLR,,0.02,WeatherDisplay:10.37,2013-12-07 05:32:00,
2013-12-07 00:37:00,39.2,33.2,29.97,NNE,22,4.5,6.9,79,0.04,CLR,,0.02,WeatherDisplay:10.37,2013-12-07 05:37:00,
2013-12-07 00:42:00,39.2,33.2,29.99,North,0,4.3,4.6,79,0.04,CLR,,0.02,WeatherDisplay:10.37,2013-12-07 05:42:00,
2013-12-07 00:47:00,39.0,33.1,30.00,WNW,292,1.8,3.5,79,0.03,CLR,,0.02,WeatherDisplay:10.37,2013-12-07 05:47:00,
2013-12-07 00:52:00,38.8,32.9,30.01,WNW,292,2.0,2.3,79,0.03,CLR,,0.02,WeatherDisplay:10.37,2013-12-07 05:52:00,
2013-12-07 00:57:00,38.8,32.9,30.00,North,0,4.7,5.8,79,0.03,RA,,0.03,WeatherDisplay:10.37,2013-12-07 05:57:00,
2013-12-07 01:02:00,38.8,32.9,30.00,West,270,2.0,5.8,79,0.03,RA,,0.03,WeatherDisplay:10.37,2013-12-07 06:02:00,
2013-12-07 01:07:00,38.8,32.9,30.00,North,0,4.0,5.8,79,0.03,RA,,0.04,WeatherDisplay:10.37,2013-12-07 06:07:00,
2013-12-07 01:12:00,38.8,32.9,30.01,NW,315,3.8,4.6,79,0.03,RA,,0.04,WeatherDisplay:10.37,2013-12-07 06:12:00,
2013-12-07 01:17:00,38.8,32.9,29.99,NNW,338,2.9,6.9,79,0.03,CLR,,0.04,WeatherDisplay:10.37,2013-12-07 06:17:00,
2013-12-07 01:22:00,38.8,32.9,29.98,NNE,22,1.2,2.3,79,0.03,RA,,0.05,WeatherDisplay:10.37,2013-12-07 06:22:00,
2013-12-07 01:27:00,39.0,33.1,29.96,NW,315,2.9,2.9,79,0.05,RA,,0.07,WeatherDisplay:10.37,2013-12-07 06:27:00,
2013-12-07 01:32:00,38.8,32.9,30.00,ENE,68,1.6,3.5,79,0.06,RA,,0.08,WeatherDisplay:10.37,2013-12-07 06:32:00,
2013-12-07 01:37:00,38.8,32.9,30.01,NW,315,2.2,3.5,79,0.08,RA,,0.10,WeatherDisplay:10.37,2013-12-07 06:37:00,
2013-12-07 01:42:00,38.8,32.9,30.00,NNE,22,2.4,3.5,79,0.09,RA,,0.11,WeatherDisplay:10.37,2013-12-07 06:42:00,
2013-12-07 01:47:00,38.8,32.9,29.98,North,0,0.9,3.5,79,0.10,RA,,0.12,WeatherDisplay:10.37,2013-12-07 06:47:00,
2013-12-07 01:52:00,38.7,32.7,29.99,NE,45,6.0,6.0,79,0.12,RA,,0.14,WeatherDisplay:10.37,2013-12-07 06:52:00,
2013-12-07 01:57:00,38.7,32.7,29.97,North,0,0.9,3.5,79,0.13,RA,,0.16,WeatherDisplay:10.37,2013-12-07 06:57:00,
2013-12-07 02:02:00,38.5,32.5,29.99,North,0,7.6,8.1,79,0.15,RA,,0.18,WeatherDisplay:10.37,2013-12-07 07:02:00,
2013-12-07 02:07:00,38.5,32.5,29.98,NNW,338,6.0,8.1,79,0.16,RA,,0.20,WeatherDisplay:10.37,2013-12-07 07:07:00,
2013-12-07 02:12:00,38.3,32.0,29.98,North,0,3.8,4.6,78,0.17,RA,,0.21,WeatherDisplay:10.37,2013-12-07 07:12:00,
2013-12-07 02:17:00,38.5,32.5,29.99,WNW,292,5.4,6.9,79,0.18,RA,,0.22,WeatherDisplay:10.37,2013-12-07 07:17:00,
2013-12-07 02:22:00,38.3,32.0,29.97,NNW,338,0.9,5.8,78,0.19,RA,,0.23,WeatherDisplay:10.37,2013-12-07 07:22:00,
2013-12-07 02:27:00,38.3,32.0,29.98,North,0,4.0,4.6,78,0.18,RA,,0.25,WeatherDisplay:10.37,2013-12-07 07:27:00,
2013-12-07 02:32:00,38.3,32.0,29.98,NE,45,0.9,1.2,78,0.17,RA,,0.25,WeatherDisplay:10.37,2013-12-07 07:32:00,
2013-12-07 02:37:00,38.3,32.0,29.98,NNW,338,2.6,2.6,78,0.15,,,0.25,WeatherDisplay:10.37,2013-12-07 07:37:00,
2013-12-07 02:42:00,38.3,32.0,29.99,WNW,292,0.2,2.3,78,0.14,CLR,,0.25,WeatherDisplay:10.37,2013-12-07 07:42:00,
2013-12-07 02:47:00,38.3,32.0,29.98,NNE,22,5.2,6.9,78,0.13,CLR,,0.25,WeatherDisplay:10.37,2013-12-07 07:47:00,
2013-12-07 02:52:00,38.3,32.0,29.98,WNW,292,0.7,6.9,78,0.11,CLR,,0.25,WeatherDisplay:10.37,2013-12-07 07:52:00,
2013-12-07 02:57:00,38.3,32.0,29.98,NNW,338,1.8,2.3,78,0.09,CLR,,0.25,WeatherDisplay:10.37,2013-12-07 07:57:00,
2013-12-07 03:02:00,38.3,32.0,29.97,WSW,248,0.7,3.5,78,0.07,CLR,,0.25,WeatherDisplay:10.37,2013-12-07 08:02:00,
2013-12-07 03:07:00,38.3,32.0,29.98,WNW,292,1.8,4.6,78,0.05,CLR,,0.25,WeatherDisplay:10.37,2013-12-07 08:07:00,
2013-12-07 03:12:00,38.5,32.5,29.98,North,0,3.3,3.5,79,0.04,CLR,,0.25,WeatherDisplay:10.37,2013-12-07 08:12:00,
2013-12-07 03:17:00,38.5,32.2,29.98,NNW,338,1.4,3.5,78,0.03,CLR,,0.25,WeatherDisplay:10.37,2013-12-07 08:17:00,
2013-12-07 03:22:00,38.5,32.2,29.97,NE,45,1.8,2.3,78,0.02,CLR,,0.25,WeatherDisplay:10.37,2013-12-07 08:22:00,
2013-12-07 03:27:00,38.5,32.2,29.96,NNW,338,1.6,2.3,78,0.00,CLR,,0.25,WeatherDisplay:10.37,2013-12-07 08:27:00,
2013-12-07 03:32:00,38.5,32.2,29.96,NNW,338,1.8,2.3,78,0.00,CLR,,0.25,WeatherDisplay:10.37,2013-12-07 08:32:00,
2013-12-07 03:37:00,38.5,32.2,29.97,NNW,338,5.2,5.8,78,0.00,CLR,,0.25,WeatherDisplay:10.37,2013-12-07 08:37:00,
2013-12-07 03:42:00,38.5,32.2,29.97,NW,315,4.9,5.8,78,0.00,CLR,,0.25,WeatherDisplay:10.37,2013-12-07 08:42:00,
2013-12-07 03:47:00,38.5,32.2,30.00,NW,315,1.8,3.5,78,0.01,RA,,0.26,WeatherDisplay:10.37,2013-12-07 08:47:00,
2013-12-07 03:52:00,38.5,32.2,30.01,NNW,338,4.0,4.6,78,0.01,RA,,0.26,WeatherDisplay:10.37,2013-12-07 08:52:00,
2013-12-07 03:57:00,38.5,32.2,30.02,WNW,292,6.7,6.9,78,0.01,CLR,,0.26,WeatherDisplay:10.37,2013-12-07 08:57:00,
2013-12-07 04:02:00,38.5,32.2,30.02,North,0,1.2,4.6,78,0.03,RA,,0.28,WeatherDisplay:10.37,2013-12-07 09:02:00,
2013-12-07 04:07:00,38.5,32.2,30.02,North,0,0.9,5.8,78,0.04,RA,,0.29,WeatherDisplay:10.37,2013-12-07 09:07:00,
2013-12-07 04:12:00,38.3,31.7,30.03,NNW,338,1.4,2.3,77,0.04,RA,,0.29,WeatherDisplay:10.37,2013-12-07 09:12:00,
2013-12-07 04:17:00,38.3,31.4,30.03,NW,315,7.4,8.1,76,0.05,RA,,0.30,WeatherDisplay:10.37,2013-12-07 09:17:00,
2013-12-07 04:22:00,38.3,31.4,30.03,NW,315,6.9,10.4,76,0.05,RA,,0.30,WeatherDisplay:10.37,2013-12-07 09:22:00,
2013-12-07 04:27:00,38.3,31.4,30.03,NNE,22,6.4,8.1,76,0.06,RA,,0.31,WeatherDisplay:10.37,2013-12-07 09:27:00,
2013-12-07 04:32:00,38.3,31.4,30.03,NNW,338,4.0,5.8,76,0.06,RA,,0.31,WeatherDisplay:10.37,2013-12-07 09:32:00,
2013-12-07 04:37:00,38.1,31.2,30.02,North,0,4.3,4.6,76,0.07,RA,,0.32,WeatherDisplay:10.37,2013-12-07 09:37:00,
2013-12-07 04:42:00,38.1,31.2,30.02,WNW,292,2.6,3.5,76,0.07,RA,,0.32,WeatherDisplay:10.37,2013-12-07 09:42:00,
2013-12-07 04:47:00,38.1,31.2,30.01,NNW,338,3.8,3.8,76,0.07,RA,,0.33,WeatherDisplay:10.37,2013-12-07 09:47:00,
2013-12-07 04:52:00,37.9,31.0,30.01,NW,315,4.9,4.9,76,0.07,RA,,0.33,WeatherDisplay:10.37,2013-12-07 09:52:00,
2013-12-07 04:57:00,37.9,31.0,30.01,NW,315,1.8,3.5,76,0.07,,,0.33,WeatherDisplay:10.37,2013-12-07 09:57:00,
2013-12-07 05:02:00,37.9,31.0,30.03,WNW,292,3.6,4.6,76,0.05,CLR,,0.33,WeatherDisplay:10.37,2013-12-07 10:02:00,
2013-12-07 05:07:00,37.9,31.0,30.03,North,0,3.3,3.5,76,0.05,RA,,0.34,WeatherDisplay:10.37,2013-12-07 10:07:00,
2013-12-07 05:12:00,37.9,31.0,30.02,NNW,338,1.8,5.8,76,0.05,RA,,0.34,WeatherDisplay:10.37,2013-12-07 10:12:00,
2013-12-07 05:17:00,37.9,31.0,30.03,NNW,338,5.4,9.2,76,0.04,CLR,,0.34,WeatherDisplay:10.37,2013-12-07 10:17:00,
2013-12-07 05:22:00,37.9,31.0,30.03,North,0,4.9,9.2,76,0.04,CLR,,0.34,WeatherDisplay:10.37,2013-12-07 10:22:00,
2013-12-07 05:27:00,37.8,30.9,30.03,NNW,338,2.4,4.6,76,0.03,CLR,,0.34,WeatherDisplay:10.37,2013-12-07 10:27:00,
2013-12-07 05:32:00,37.8,30.9,30.03,WNW,292,1.2,2.3,76,0.03,CLR,,0.34,WeatherDisplay:10.37,2013-12-07 10:32:00,
2013-12-07 05:37:00,37.8,30.9,30.03,NW,315,3.8,4.6,76,0.02,CLR,,0.34,WeatherDisplay:10.37,2013-12-07 10:37:00,
2013-12-07 05:42:00,37.8,30.9,30.02,NNW,338,2.4,2.4,76,0.03,RA,,0.35,WeatherDisplay:10.37,2013-12-07 10:42:00,
2013-12-07 05:47:00,37.8,30.9,30.03,NNW,338,3.3,4.6,76,0.02,RA,,0.35,WeatherDisplay:10.37,2013-12-07 10:47:00,
2013-12-07 05:52:00,37.8,30.9,30.04,North,0,3.3,6.9,76,0.02,CLR,,0.35,WeatherDisplay:10.37,2013-12-07 10:52:00,
2013-12-07 05:57:00,37.9,31.0,30.04,NW,315,1.8,4.6,76,0.02,CLR,,0.35,WeatherDisplay:10.37,2013-12-07 10:57:00,
2013-12-07 06:02:00,37.9,31.0,30.04,North,0,4.0,4.6,76,0.02,CLR,,0.35,WeatherDisplay:10.37,2013-12-07 11:02:00,
2013-12-07 06:07:00,37.9,31.0,30.05,NW,315,6.2,6.2,76,0.01,CLR,,0.35,WeatherDisplay:10.37,2013-12-07 11:07:00,
2013-12-07 06:12:00,37.9,31.0,30.05,NNW,338,1.8,4.6,76,0.01,CLR,,0.35,WeatherDisplay:10.37,2013-12-07 11:12:00,
2013-12-07 06:17:00,37.9,31.0,30.05,WNW,292,1.8,6.9,76,0.01,CLR,,0.35,WeatherDisplay:10.37,2013-12-07 11:17:00,
2013-12-07 06:22:00,37.9,31.0,30.05,NW,315,1.8,3.5,76,0.01,CLR,,0.35,WeatherDisplay:10.37,2013-12-07 11:22:00,
2013-12-07 06:27:00,37.8,30.9,30.05,NNW,338,3.3,3.3,76,0.01,CLR,,0.35,WeatherDisplay:10.37,2013-12-07 11:27:00,
2013-12-07 06:32:00,37.8,30.9,30.05,NNW,338,3.3,3.5,76,0.01,CLR,,0.35,WeatherDisplay:10.37,2013-12-07 11:32:00,
2013-12-07 06:37:00,37.8,30.9,30.05,WSW,248,0.5,2.3,76,0.01,CLR,,0.35,WeatherDisplay:10.37,2013-12-07 11:37:00,
2013-12-07 06:42:00,37.8,30.9,30.06,NW,315,3.8,3.8,76,0.00,CLR,,0.35,WeatherDisplay:10.37,2013-12-07 11:42:00,
2013-12-07 06:47:00,37.8,30.9,30.06,NNE,22,2.4,5.8,76,0.00,CLR,,0.35,WeatherDisplay:10.37,2013-12-07 11:47:00,
2013-12-07 06:52:00,37.6,30.7,30.06,NNW,338,2.4,3.5,76,0.01,RA,,0.36,WeatherDisplay:10.37,2013-12-07 11:52:00,
2013-12-07 06:57:00,37.4,30.5,30.06,NW,315,1.8,3.5,76,0.01,RA,,0.36,WeatherDisplay:10.37,2013-12-07 11:57:00,
2013-12-07 07:02:00,37.2,30.3,30.06,NW,315,0.5,3.5,76,0.01,CLR,,0.36,WeatherDisplay:10.37,2013-12-07 12:02:00,
2013-12-07 07:07:00,37.2,30.3,30.06,East,90,1.6,3.5,76,0.01,CLR,,0.36,WeatherDisplay:10.37,2013-12-07 12:07:00,
2013-12-07 07:12:00,37.0,30.5,30.07,NNW,338,3.8,3.8,77,0.01,CLR,,0.36,WeatherDisplay:10.37,2013-12-07 12:12:00,
2013-12-07 07:17:00,37.0,30.5,30.07,NNW,338,4.5,5.8,77,0.01,CLR,,0.36,WeatherDisplay:10.37,2013-12-07 12:17:00,
2013-12-07 07:22:00,36.9,30.3,30.07,NNW,338,2.0,4.6,77,0.01,CLR,,0.36,WeatherDisplay:10.37,2013-12-07 12:22:00,
2013-12-07 07:27:00,36.7,30.1,30.07,NW,315,1.8,2.3,77,0.01,CLR,,0.36,WeatherDisplay:10.37,2013-12-07 12:27:00,
2013-12-07 07:32:00,36.7,30.1,30.07,North,0,3.8,4.6,77,0.01,CLR,,0.36,WeatherDisplay:10.37,2013-12-07 12:32:00,
2013-12-07 07:37:00,36.9,30.0,30.07,NW,315,5.4,5.8,76,0.01,CLR,,0.36,WeatherDisplay:10.37,2013-12-07 12:37:00,
2013-12-07 07:42:00,37.0,30.2,30.07,NNW,338,4.7,5.8,76,0.01,CLR,,0.36,WeatherDisplay:10.37,2013-12-07 12:42:00,
2013-12-07 07:47:00,37.0,30.5,30.08,NW,315,2.6,2.6,77,0.01,CLR,,0.36,WeatherDisplay:10.37,2013-12-07 12:47:00,
2013-12-07 07:52:00,37.0,30.5,30.08,WSW,248,2.0,3.5,77,0.00,CLR,,0.36,WeatherDisplay:10.37,2013-12-07 12:52:00,
2013-12-07 07:57:00,37.0,30.5,30.08,NNW,338,6.2,6.2,77,0.00,CLR,,0.36,WeatherDisplay:10.37,2013-12-07 12:57:00,
2013-12-07 08:02:00,36.9,30.3,30.08,NNW,338,3.8,3.8,77,0.00,CLR,,0.36,WeatherDisplay:10.37,2013-12-07 13:02:00,
2013-12-07 08:07:00,36.9,30.6,30.09,NNW,338,0.9,2.3,78,0.00,CLR,,0.36,WeatherDisplay:10.37,2013-12-07 13:07:00,
2013-12-07 08:12:00,37.0,30.8,30.09,NNW,338,0.9,1.2,78,0.00,CLR,,0.36,WeatherDisplay:10.37,2013-12-07 13:12:00,
2013-12-07 08:17:00,37.0,30.8,30.10,NW,315,4.9,4.9,78,0.00,CLR,,0.36,WeatherDisplay:10.37,2013-12-07 13:17:00,
2013-12-07 08:22:00,37.0,30.8,30.10,West,270,1.2,2.3,78,0.00,CLR,,0.36,WeatherDisplay:10.37,2013-12-07 13:22:00,
2013-12-07 08:27:00,37.0,30.8,30.11,North,0,2.4,4.6,78,0.00,CLR,,0.36,WeatherDisplay:10.37,2013-12-07 13:27:00,
2013-12-07 08:32:00,37.2,31.0,30.11,NW,315,1.8,2.3,78,0.00,CLR,,0.36,WeatherDisplay:10.37,2013-12-07 13:32:00,
2013-12-07 08:37:00,37.2,31.0,30.11,West,270,0.5,0.5,78,0.00,CLR,,0.36,WeatherDisplay:10.37,2013-12-07 13:37:00,
2013-12-07 08:42:00,37.2,31.3,30.11,NNW,338,0.7,5.8,79,0.00,CLR,,0.36,WeatherDisplay:10.37,2013-12-07 13:42:00,
2013-12-07 08:47:00,37.0,31.1,30.11,NNW,338,2.9,2.9,79,0.00,CLR,,0.36,WeatherDisplay:10.37,2013-12-07 13:47:00,
2013-12-07 08:52:00,37.0,31.1,30.11,NW,315,2.9,2.9,79,0.00,CLR,,0.36,WeatherDisplay:10.37,2013-12-07 13:52:00,
2013-12-07 08:57:00,37.4,31.5,30.11,WNW,292,2.0,2.3,79,0.00,CLR,,0.36,WeatherDisplay:10.37,2013-12-07 13:57:00,
2013-12-07 09:02:00,37.6,31.7,30.12,NW,315,2.0,2.0,79,0.00,CLR,,0.36,WeatherDisplay:10.37,2013-12-07 14:02:00,
2013-12-07 09:07:00,37.6,31.7,30.11,North,0,0.5,0.0,79,0.00,CLR,,0.36,WeatherDisplay:10.37,2013-12-07 14:07:00,
2013-12-07 09:12:00,37.8,31.8,30.11,WNW,292,2.4,3.5,79,0.00,CLR,,0.36,WeatherDisplay:10.37,2013-12-07 14:12:00,
2013-12-07 09:17:00,37.9,32.0,30.11,NW,315,3.1,3.5,79,0.00,CLR,,0.36,WeatherDisplay:10.37,2013-12-07 14:17:00,
2013-12-07 09:22:00,38.1,32.2,30.11,NNW,338,1.4,2.3,79,0.00,CLR,,0.36,WeatherDisplay:10.37,2013-12-07 14:22:00,
2013-12-07 09:27:00,38.3,32.4,30.12,NNW,338,0.9,2.3,79,0.00,CLR,,0.36,WeatherDisplay:10.37,2013-12-07 14:27:00,
2013-12-07 09:32:00,38.5,32.5,30.12,WNW,292,1.6,2.3,79,0.00,CLR,,0.36,WeatherDisplay:10.37,2013-12-07 14:32:00,
2013-12-07 09:37:00,38.3,32.7,30.13,NW,315,0.0,2.3,80,0.00,CLR,,0.36,WeatherDisplay:10.37,2013-12-07 14:37:00,
2013-12-07 09:42:00,38.5,32.8,30.13,West,270,0.5,2.3,80,0.00,CLR,,0.36,WeatherDisplay:10.37,2013-12-07 14:42:00,
2013-12-07 09:47:00,38.5,32.8,30.13,WSW,248,0.2,2.3,80,0.00,CLR,,0.36,WeatherDisplay:10.37,2013-12-07 14:47:00,
2013-12-07 09:52:00,38.7,33.0,30.13,SSW,202,0.5,3.5,80,0.00,CLR,,0.36,WeatherDisplay:10.37,2013-12-07 14:52:00,
2013-12-07 09:57:00,38.8,33.2,30.13,ENE,68,2.2,4.6,80,0.00,CLR,,0.36,WeatherDisplay:10.37,2013-12-07 14:57:00,
2013-12-07 10:02:00,39.0,33.4,30.13,NW,315,4.7,4.7,80,0.00,CLR,,0.36,WeatherDisplay:10.37,2013-12-07 15:02:00,
2013-12-07 10:07:00,39.0,33.7,30.12,West,270,1.4,4.6,81,0.00,CLR,,0.36,WeatherDisplay:10.37,2013-12-07 15:07:00,
2013-12-07 10:12:00,39.0,33.7,30.12,NNE,22,4.5,8.1,81,0.00,CLR,,0.36,WeatherDisplay:10.37,2013-12-07 15:12:00,
2013-12-07 10:17:00,39.2,33.9,30.12,NNW,338,2.2,2.3,81,0.00,CLR,,0.36,WeatherDisplay:10.37,2013-12-07 15:17:00,
2013-12-07 10:22:00,39.6,34.2,30.12,NW,315,2.4,3.5,81,0.00,CLR,,0.36,WeatherDisplay:10.37,2013-12-07 15:22:00,
2013-12-07 10:27:00,39.7,34.4,30.12,North,0,2.9,5.8,81,0.00,CLR,,0.36,WeatherDisplay:10.37,2013-12-07 15:27:00,
2013-12-07 10:32:00,40.1,35.0,30.11,WSW,248,2.2,4.6,82,0.00,CLR,,0.36,WeatherDisplay:10.37,2013-12-07 15:32:00,
2013-12-07 10:37:00,40.5,35.4,30.12,NW,315,2.9,2.9,82,0.00,CLR,,0.36,WeatherDisplay:10.37,2013-12-07 15:37:00,
2013-12-07 10:42:00,40.6,35.3,30.12,NW,315,3.3,3.5,81,0.00,CLR,,0.36,WeatherDisplay:10.37,2013-12-07 15:42:00,
2013-12-07 10:47:00,40.6,35.6,30.12,West,270,3.1,3.5,82,0.00,CLR,,0.36,WeatherDisplay:10.37,2013-12-07 15:47:00,
2013-12-07 10:52:00,40.6,35.3,30.12,West,270,1.6,3.5,81,0.00,CLR,,0.36,WeatherDisplay:10.37,2013-12-07 15:52:00,
2013-12-07 10:57:00,40.6,35.3,30.12,West,270,5.9,6.9,81,0.00,CLR,,0.36,WeatherDisplay:10.37,2013-12-07 15:57:00,
2013-12-07 11:02:00,40.8,35.1,30.12,NW,315,4.7,6.9,80,0.00,CLR,,0.36,WeatherDisplay:10.37,2013-12-07 16:02:00,
2013-12-07 11:07:00,41.0,35.3,30.11,NW,315,1.8,3.5,80,0.00,CLR,,0.36,WeatherDisplay:10.37,2013-12-07 16:07:00,
2013-12-07 11:12:00,41.2,35.5,30.12,NW,315,2.4,5.8,80,0.00,CLR,,0.36,WeatherDisplay:10.37,2013-12-07 16:12:00,
2013-12-07 11:17:00,41.0,35.0,30.12,WSW,248,0.0,1.2,79,0.00,CLR,,0.36,WeatherDisplay:10.37,2013-12-07 16:17:00,
2013-12-07 11:22:00,41.0,35.0,30.12,North,0,2.9,4.6,79,0.00,CLR,,0.36,WeatherDisplay:10.37,2013-12-07 16:22:00,
2013-12-07 11:27:00,41.2,35.2,30.12,NW,315,0.9,1.2,79,0.00,CLR,,0.36,WeatherDisplay:10.37,2013-12-07 16:27:00,
2013-12-07 11:32:00,41.4,35.0,30.12,NNW,338,4.9,4.9,78,0.00,CLR,,0.36,WeatherDisplay:10.37,2013-12-07 16:32:00,
2013-12-07 11:37:00,41.2,34.2,30.11,NNW,338,5.2,10.4,76,0.00,CLR,,0.36,WeatherDisplay:10.37,2013-12-07 16:37:00,
2013-12-07 11:42:00,41.4,34.7,30.11,NW,315,1.6,3.5,77,0.00,CLR,,0.36,WeatherDisplay:10.37,2013-12-07 16:42:00,
2013-12-07 11:47:00,41.5,35.2,30.12,ENE,68,2.6,2.6,78,0.00,CLR,,0.36,WeatherDisplay:10.37,2013-12-07 16:47:00,
2013-12-07 11:52:00,41.9,34.9,30.12,North,0,4.0,8.1,76,0.00,CLR,,0.36,WeatherDisplay:10.37,2013-12-07 16:52:00,
2013-12-07 11:57:00,41.9,35.2,30.11,North,0,5.2,5.2,77,0.00,CLR,,0.36,WeatherDisplay:10.37,2013-12-07 16:57:00,
2013-12-07 12:02:00,41.5,34.5,30.12,NW,315,2.6,3.5,76,0.00,CLR,,0.36,WeatherDisplay:10.37,2013-12-07 17:02:00,
2013-12-07 12:07:00,41.5,34.5,30.12,NW,315,2.2,4.6,76,0.00,CLR,,0.36,WeatherDisplay:10.37,2013-12-07 17:07:00,
2013-12-07 12:12:00,41.4,34.7,30.12,West,270,2.9,4.6,77,0.00,CLR,,0.36,WeatherDisplay:10.37,2013-12-07 17:12:00,
2013-12-07 12:17:00,41.4,34.4,30.12,WSW,248,1.2,2.3,76,0.00,CLR,,0.36,WeatherDisplay:10.37,2013-12-07 17:17:00,
2013-12-07 12:22:00,41.2,34.5,30.12,NNW,338,6.4,6.9,77,0.00,CLR,,0.36,WeatherDisplay:10.37,2013-12-07 17:22:00,
2013-12-07 12:27:00,41.0,34.3,30.12,NW,315,0.5,2.3,77,0.00,CLR,,0.36,WeatherDisplay:10.37,2013-12-07 17:27:00,
2013-12-07 12:32:00,41.0,34.7,30.12,NNW,338,2.4,2.4,78,0.00,CLR,,0.36,WeatherDisplay:10.37,2013-12-07 17:32:00,
2013-12-07 12:37:00,41.0,34.7,30.12,NNW,338,2.0,4.6,78,0.00,CLR,,0.36,WeatherDisplay:10.37,2013-12-07 17:37:00,
2013-12-07 12:42:00,40.6,34.0,30.12,West,270,1.8,2.3,77,0.00,CLR,,0.36,WeatherDisplay:10.37,2013-12-07 17:42:00,
2013-12-07 12:47:00,40.6,34.0,30.12,South,180,1.2,4.6,77,0.00,CLR,,0.36,WeatherDisplay:10.37,2013-12-07 17:47:00,
2013-12-07 12:52:00,40.6,34.0,30.12,NW,315,3.3,3.3,77,0.00,CLR,,0.36,WeatherDisplay:10.37,2013-12-07 17:52:00,
2013-12-07 12:57:00,40.8,33.8,30.12,North,0,2.9,3.5,76,0.00,CLR,,0.36,WeatherDisplay:10.37,2013-12-07 17:57:00,
2013-12-07 13:02:00,41.4,34.7,30.13,NW,315,0.2,1.2,77,0.00,CLR,,0.36,WeatherDisplay:10.37,2013-12-07 18:02:00,
2013-12-07 13:07:00,42.1,34.7,30.13,SW,225,0.9,2.3,75,0.00,CLR,,0.36,WeatherDisplay:10.37,2013-12-07 18:07:00,
2013-12-07 13:12:00,42.1,34.4,30.13,North,0,0.9,5.8,74,0.00,CLR,,0.36,WeatherDisplay:10.37,2013-12-07 18:12:00,
2013-12-07 13:17:00,41.5,33.2,30.13,NNW,338,0.7,3.5,72,0.00,CLR,,0.36,WeatherDisplay:10.37,2013-12-07 18:17:00,
2013-12-07 13:22:00,41.4,33.7,30.13,WNW,292,0.0,3.5,74,0.00,CLR,,0.36,WeatherDisplay:10.37,2013-12-07 18:22:00,
2013-12-07 13:27:00,41.9,34.6,30.13,SSW,202,0.5,1.2,75,0.00,CLR,,0.36,WeatherDisplay:10.37,2013-12-07 18:27:00,
2013-12-07 13:32:00,42.1,33.7,30.13,NNW,338,1.8,5.8,72,0.00,CLR,,0.36,WeatherDisplay:10.37,2013-12-07 18:32:00,
2013-12-07 13:37:00,42.1,33.4,30.13,NNW,338,2.4,2.4,71,0.00,CLR,,0.36,WeatherDisplay:10.37,2013-12-07 18:37:00,
2013-12-07 13:42:00,42.1,33.4,30.13,NNE,22,4.0,5.2,71,0.00,CLR,,0.36,WeatherDisplay:10.37,2013-12-07 18:42:00,
2013-12-07 13:47:00,42.1,33.7,30.13,WSW,248,2.0,2.0,72,0.00,CLR,,0.36,WeatherDisplay:10.37,2013-12-07 18:47:00,
2013-12-07 13:52:00,42.3,33.5,30.13,North,0,0.5,3.5,71,0.00,CLR,,0.36,WeatherDisplay:10.37,2013-12-07 18:52:00,
2013-12-07 13:57:00,42.1,33.4,30.13,NNE,22,1.4,3.5,71,0.00,CLR,,0.36,WeatherDisplay:10.37,2013-12-07 18:57:00,
2013-12-07 14:02:00,42.1,33.7,30.13,WNW,292,2.6,3.5,72,0.00,CLR,,0.36,WeatherDisplay:10.37,2013-12-07 19:02:00,
2013-12-07 14:07:00,41.9,33.5,30.13,NNE,22,1.2,2.3,72,0.00,CLR,,0.36,WeatherDisplay:10.37,2013-12-07 19:07:00,
2013-12-07 14:12:00,41.9,33.5,30.13,NNW,338,4.3,4.3,72,0.00,CLR,,0.36,WeatherDisplay:10.37,2013-12-07 19:12:00,
2013-12-07 14:17:00,41.7,33.4,30.13,NNE,22,0.7,2.3,72,0.00,CLR,,0.36,WeatherDisplay:10.37,2013-12-07 19:17:00,
2013-12-07 14:22:00,41.4,32.3,30.13,North,0,0.9,6.9,70,0.00,CLR,,0.36,WeatherDisplay:10.37,2013-12-07 19:22:00,
2013-12-07 14:27:00,41.4,31.9,30.13,WNW,292,1.6,3.5,69,0.00,CLR,,0.36,WeatherDisplay:10.37,2013-12-07 19:27:00,
2013-12-07 14:32:00,41.4,31.9,30.13,West,270,0.7,8.1,69,0.00,CLR,,0.36,WeatherDisplay:10.37,2013-12-07 19:32:00,
2013-12-07 14:37:00,41.4,32.3,30.13,NNE,22,3.6,3.6,70,0.00,CLR,,0.36,WeatherDisplay:10.37,2013-12-07 19:37:00,
2013-12-07 14:42:00,41.4,31.2,30.14,NNW,338,2.0,4.6,67,0.00,CLR,,0.36,WeatherDisplay:10.37,2013-12-07 19:42:00,
2013-12-07 14:47:00,41.4,32.3,30.14,NW,315,2.6,2.6,70,0.00,CLR,,0.36,WeatherDisplay:10.37,2013-12-07 19:47:00,
2013-12-07 14:52:00,41.4,31.9,30.14,NW,315,1.6,4.6,69,0.00,CLR,,0.36,WeatherDisplay:10.37,2013-12-07 19:52:00,
2013-12-07 14:57:00,41.4,32.3,30.15,North,0,2.0,4.6,70,0.00,CLR,,0.36,WeatherDisplay:10.37,2013-12-07 19:57:00,
2013-12-07 15:02:00,41.4,31.2,30.15,NNW,338,4.0,4.6,67,0.00,CLR,,0.36,WeatherDisplay:10.37,2013-12-07 20:02:00,
2013-12-07 15:07:00,41.2,31.4,30.15,NNW,338,5.4,5.8,68,0.00,CLR,,0.36,WeatherDisplay:10.37,2013-12-07 20:07:00,
2013-12-07 15:12:00,41.2,31.4,30.15,West,270,0.9,4.6,68,0.00,CLR,,0.36,WeatherDisplay:10.37,2013-12-07 20:12:00,
2013-12-07 15:17:00,41.2,32.1,30.15,NW,315,3.3,3.3,70,0.00,CLR,,0.36,WeatherDisplay:10.37,2013-12-07 20:17:00,
2013-12-07 15:22:00,41.0,32.0,30.16,West,270,0.0,2.3,70,0.00,CLR,,0.36,WeatherDisplay:10.37,2013-12-07 20:22:00,
2013-12-07 15:27:00,41.2,32.8,30.16,West,270,1.8,1.8,72,0.00,CLR,,0.36,WeatherDisplay:10.37,2013-12-07 20:27:00,
2013-12-07 15:32:00,40.8,31.4,30.16,West,270,0.7,5.8,69,0.00,CLR,,0.36,WeatherDisplay:10.37,2013-12-07 20:32:00,
2013-12-07 15:37:00,40.6,30.9,30.17,NW,315,0.9,2.3,68,0.00,CLR,,0.36,WeatherDisplay:10.37,2013-12-07 20:37:00,
2013-12-07 15:42:00,40.5,31.1,30.16,North,0,0.0,2.3,69,0.00,CLR,,0.36,WeatherDisplay:10.37,2013-12-07 20:42:00,
2013-12-07 15:47:00,40.3,31.6,30.17,NNW,338,2.2,2.3,71,0.00,CLR,,0.36,WeatherDisplay:10.37,2013-12-07 20:47:00,
2013-12-07 15:52:00,40.1,31.1,30.17,NW,315,0.5,3.5,70,0.00,CLR,,0.36,WeatherDisplay:10.37,2013-12-07 20:52:00,
2013-12-07 15:57:00,39.9,31.3,30.18,NW,315,1.8,1.8,71,0.00,CLR,,0.36,WeatherDisplay:10.37,2013-12-07 20:57:00,
2013-12-07 16:02:00,39.6,30.9,30.18,SW,225,0.5,1.2,71,0.00,CLR,,0.36,WeatherDisplay:10.37,2013-12-07 21:02:00,
2013-12-07 16:07:00,39.2,30.6,30.18,NW,315,0.0,0.0,71,0.00,CLR,,0.36,WeatherDisplay:10.37,2013-12-07 21:07:00,
2013-12-07 16:12:00,39.0,30.8,30.18,SSW,202,0.5,0.5,72,0.00,CLR,,0.36,WeatherDisplay:10.37,2013-12-07 21:12:00,
2013-12-07 16:17:00,38.7,30.7,30.18,West,270,0.7,0.7,73,0.00,CLR,,0.36,WeatherDisplay:10.37,2013-12-07 21:17:00,
2013-12-07 16:22:00,38.5,30.9,30.19,West,270,0.5,0.5,74,0.00,CLR,,0.36,WeatherDisplay:10.37,2013-12-07 21:22:00,
2013-12-07 16:27:00,38.1,30.6,30.19,WNW,292,0.0,0.0,74,0.00,CLR,,0.36,WeatherDisplay:10.37,2013-12-07 21:27:00,
2013-12-07 16:32:00,37.8,30.2,30.20,WSW,248,0.0,0.0,74,0.00,CLR,,0.36,WeatherDisplay:10.37,2013-12-07 21:32:00,
2013-12-07 16:37:00,37.6,30.4,30.20,NW,315,0.0,1.2,75,0.00,CLR,,0.36,WeatherDisplay:10.37,2013-12-07 21:37:00,
2013-12-07 16:42:00,37.2,30.0,30.20,SW,225,0.0,0.0,75,0.00,CLR,,0.36,WeatherDisplay:10.37,2013-12-07 21:42:00,
2013-12-07 16:47:00,37.0,30.2,30.21,West,270,0.0,0.0,76,0.00,CLR,,0.36,WeatherDisplay:10.37,2013-12-07 21:47:00,
2013-12-07 16:52:00,36.9,30.0,30.21,West,270,0.0,0.0,76,0.00,CLR,,0.36,WeatherDisplay:10.37,2013-12-07 21:52:00,
2013-12-07 16:57:00,36.7,30.1,30.21,West,270,0.0,0.0,77,0.00,CLR,,0.36,WeatherDisplay:10.37,2013-12-07 21:57:00,
2013-12-07 17:02:00,36.5,30.0,30.21,NW,315,0.0,0.0,77,0.00,CLR,,0.36,WeatherDisplay:10.37,2013-12-07 22:02:00,
2013-12-07 17:07:00,36.3,29.5,30.22,NW,315,0.0,0.0,76,0.00,CLR,,0.36,WeatherDisplay:10.37,2013-12-07 22:07:00,
2013-12-07 17:12:00,36.0,29.1,30.22,WNW,292,0.0,0.0,76,0.00,CLR,,0.36,WeatherDisplay:10.37,2013-12-07 22:12:00,
2013-12-07 17:17:00,35.8,29.3,30.22,WNW,292,0.0,0.0,77,0.00,CLR,,0.36,WeatherDisplay:10.37,2013-12-07 22:17:00,
2013-12-07 17:22:00,35.4,28.9,30.23,WNW,292,0.0,0.0,77,0.00,CLR,,0.36,WeatherDisplay:10.37,2013-12-07 22:22:00,
2013-12-07 17:27:00,35.2,28.8,30.23,WNW,292,0.0,0.0,77,0.00,CLR,,0.36,WeatherDisplay:10.37,2013-12-07 22:27:00,
2013-12-07 17:32:00,34.9,28.7,30.23,WNW,292,0.0,0.0,78,0.00,CLR,,0.36,WeatherDisplay:10.37,2013-12-07 22:32:00,
2013-12-07 17:37:00,34.7,28.5,30.23,WNW,292,0.0,0.0,78,0.00,CLR,,0.36,WeatherDisplay:10.37,2013-12-07 22:37:00,
2013-12-07 17:42:00,34.5,28.4,30.24,NW,315,0.0,0.0,78,0.00,CLR,,0.36,WeatherDisplay:10.37,2013-12-07 22:42:00,
2013-12-07 17:47:00,34.2,28.3,30.24,WNW,292,0.2,1.2,79,0.00,CLR,,0.36,WeatherDisplay:10.37,2013-12-07 22:47:00,
2013-12-07 17:52:00,34.2,28.3,30.24,West,270,0.2,0.0,79,0.00,CLR,,0.36,WeatherDisplay:10.37,2013-12-07 22:52:00,
2013-12-07 17:57:00,33.8,28.0,30.24,WNW,292,0.2,0.2,79,0.00,CLR,,0.36,WeatherDisplay:10.37,2013-12-07 22:57:00,
2013-12-07 18:02:00,33.6,27.8,30.24,WNW,292,0.2,0.0,79,0.00,CLR,,0.36,WeatherDisplay:10.37,2013-12-07 23:02:00,
2013-12-07 18:07:00,33.4,27.9,30.24,WNW,292,0.0,0.0,80,0.00,CLR,,0.36,WeatherDisplay:10.37,2013-12-07 23:07:00,
2013-12-07 18:12:00,33.4,27.9,30.25,West,270,0.0,1.2,80,0.00,CLR,,0.36,WeatherDisplay:10.37,2013-12-07 23:12:00,
2013-12-07 18:17:00,33.4,27.9,30.25,NW,315,0.5,0.5,80,0.00,CLR,,0.36,WeatherDisplay:10.37,2013-12-07 23:17:00,
2013-12-07 18:22:00,33.1,27.6,30.26,WNW,292,0.9,1.2,80,0.00,CLR,,0.36,WeatherDisplay:10.37,2013-12-07 23:22:00,
2013-12-07 18:27:00,33.1,27.6,30.25,WNW,292,0.5,0.0,80,0.00,CLR,,0.36,WeatherDisplay:10.37,2013-12-07 23:27:00,
2013-12-07 18:32:00,32.7,27.2,30.26,NW,315,0.5,1.2,80,0.00,CLR,,0.36,WeatherDisplay:10.37,2013-12-07 23:32:00,
2013-12-07 18:37:00,32.7,27.2,30.26,WSW,248,0.0,0.0,80,0.00,CLR,,0.36,WeatherDisplay:10.37,2013-12-07 23:37:00,
2013-12-07 18:42:00,32.5,27.1,30.26,WNW,292,0.2,1.2,80,0.00,CLR,,0.36,WeatherDisplay:10.37,2013-12-07 23:42:00,
2013-12-07 18:47:00,32.5,27.1,30.27,NW,315,0.5,1.2,80,0.00,CLR,,0.36,WeatherDisplay:10.37,2013-12-07 23:47:00,
2013-12-07 18:52:00,32.4,26.9,30.27,NW,315,0.5,0.5,80,0.00,CLR,,0.36,WeatherDisplay:10.37,2013-12-07 23:52:00,
2013-12-07 18:57:00,32.2,26.7,30.27,NW,315,0.0,1.2,80,0.00,CLR,,0.36,WeatherDisplay:10.37,2013-12-07 23:57:00,
2013-12-07 19:02:00,32.2,26.7,30.28,WNW,292,0.5,0.5,80,0.00,CLR,,0.36,WeatherDisplay:10.37,2013-12-08 00:02:00,
2013-12-07 19:07:00,32.0,26.5,30.28,West,270,0.0,1.2,80,0.00,CLR,,0.36,WeatherDisplay:10.37,2013-12-08 00:07:00,
2013-12-07 19:12:00,32.0,26.5,30.28,West,270,0.5,0.5,80,0.00,CLR,,0.36,WeatherDisplay:10.37,2013-12-08 00:12:00,
2013-12-07 19:17:00,31.8,26.4,30.28,North,0,0.5,0.5,80,0.00,CLR,,0.36,WeatherDisplay:10.37,2013-12-08 00:17:00,
2013-12-07 19:22:00,31.6,26.2,30.28,WNW,292,0.0,1.2,80,0.00,CLR,,0.36,WeatherDisplay:10.37,2013-12-08 00:22:00,
2013-12-07 19:27:00,31.6,26.2,30.29,NW,315,0.0,0.0,80,0.00,CLR,,0.36,WeatherDisplay:10.37,2013-12-08 00:27:00,
2013-12-07 19:32:00,31.5,26.0,30.29,WNW,292,0.0,0.0,80,0.00,CLR,,0.36,WeatherDisplay:10.37,2013-12-08 00:32:00,
2013-12-07 19:37:00,31.3,25.8,30.29,North,0,0.2,0.2,80,0.00,CLR,,0.36,WeatherDisplay:10.37,2013-12-08 00:37:00,
2013-12-07 19:42:00,31.3,25.8,30.29,North,0,0.7,1.2,80,0.00,CLR,,0.36,WeatherDisplay:10.37,2013-12-08 00:42:00,
2013-12-07 19:47:00,31.3,25.8,30.29,WNW,292,0.2,0.2,80,0.00,CLR,,0.36,WeatherDisplay:10.37,2013-12-08 00:47:00,
2013-12-07 19:52:00,31.1,25.7,30.29,NNE,22,0.2,2.3,80,0.00,CLR,,0.36,WeatherDisplay:10.37,2013-12-08 00:52:00,
2013-12-07 19:57:00,31.1,26.0,30.29,NW,315,0.5,4.6,81,0.00,CLR,,0.36,WeatherDisplay:10.37,2013-12-08 00:57:00,
2013-12-07 20:02:00,31.1,25.7,30.29,West,270,2.2,2.2,80,0.00,CLR,,0.36,WeatherDisplay:10.37,2013-12-08 01:02:00,
2013-12-07 20:07:00,31.3,25.8,30.29,WNW,292,1.2,2.3,80,0.00,CLR,,0.36,WeatherDisplay:10.37,2013-12-08 01:07:00,
2013-12-07 20:12:00,31.5,26.0,30.30,NW,315,0.7,1.2,80,0.00,CLR,,0.36,WeatherDisplay:10.37,2013-12-08 01:12:00,
2013-12-07 20:17:00,31.5,26.0,30.30,NNW,338,1.2,2.3,80,0.00,CLR,,0.36,WeatherDisplay:10.37,2013-12-08 01:17:00,
2013-12-07 20:22:00,31.6,25.9,30.30,NW,315,0.2,1.2,79,0.00,CLR,,0.36,WeatherDisplay:10.37,2013-12-08 01:22:00,
2013-12-07 20:27:00,31.6,25.9,30.30,NNW,338,2.4,2.4,79,0.00,CLR,,0.36,WeatherDisplay:10.37,2013-12-08 01:27:00,
2013-12-07 20:32:00,31.6,25.6,30.31,WNW,292,1.2,3.5,78,0.00,CLR,,0.36,WeatherDisplay:10.37,2013-12-08 01:32:00,
2013-12-07 20:37:00,31.8,25.4,30.31,SSW,202,0.5,2.3,77,0.00,CLR,,0.36,WeatherDisplay:10.37,2013-12-08 01:37:00,
2013-12-07 20:42:00,32.0,25.0,30.31,North,0,1.2,2.3,75,0.00,CLR,,0.36,WeatherDisplay:10.37,2013-12-08 01:42:00,
2013-12-07 20:47:00,32.4,25.3,30.31,North,0,1.6,6.9,75,0.00,CLR,,0.36,WeatherDisplay:10.37,2013-12-08 01:47:00,
2013-12-07 20:52:00,32.4,25.6,30.31,WNW,292,0.5,1.2,76,0.00,CLR,,0.36,WeatherDisplay:10.37,2013-12-08 01:52:00,
2013-12-07 20:57:00,32.4,25.0,30.31,NW,315,4.5,4.5,74,0.00,CLR,,0.36,WeatherDisplay:10.37,2013-12-08 01:57:00,
2013-12-07 21:02:00,32.4,25.3,30.31,NW,315,0.5,1.2,75,0.00,CLR,,0.36,WeatherDisplay:10.37,2013-12-08 02:02:00,
2013-12-07 21:07:00,32.5,25.5,30.32,NW,315,1.8,3.5,75,0.00,CLR,,0.36,WeatherDisplay:10.37,2013-12-08 02:07:00,
2013-12-07 21:12:00,32.4,25.0,30.32,NNW,338,2.4,2.4,74,0.00,CLR,,0.36,WeatherDisplay:10.37,2013-12-08 02:12:00,
2013-12-07 21:17:00,32.5,25.2,30.32,North,0,2.4,2.4,74,0.00,CLR,,0.36,WeatherDisplay:10.37,2013-12-08 02:17:00,
2013-12-07 21:22:00,32.5,24.8,30.32,WNW,292,1.4,4.6,73,0.00,CLR,,0.36,WeatherDisplay:10.37,2013-12-08 02:22:00,
2013-12-07 21:27:00,32.5,24.8,30.32,WNW,292,0.5,2.3,73,0.00,CLR,,0.36,WeatherDisplay:10.37,2013-12-08 02:27:00,
2013-12-07 21:32:00,32.7,24.3,30.32,WNW,292,0.9,1.2,71,0.00,CLR,,0.36,WeatherDisplay:10.37,2013-12-08 02:32:00,
2013-12-07 21:37:00,32.7,24.7,30.32,NW,315,1.8,3.5,72,0.00,CLR,,0.36,WeatherDisplay:10.37,2013-12-08 02:37:00,
2013-12-07 21:42:00,32.7,24.7,30.33,WNW,292,0.9,1.2,72,0.00,CLR,,0.36,WeatherDisplay:10.37,2013-12-08 02:42:00,
2013-12-07 21:47:00,32.5,24.8,30.33,NNW,338,3.1,3.1,73,0.00,CLR,,0.36,WeatherDisplay:10.37,2013-12-08 02:47:00,
2013-12-07 21:52:00,32.5,24.8,30.33,NW,315,4.0,4.0,73,0.00,CLR,,0.36,WeatherDisplay:10.37,2013-12-08 02:52:00,
2013-12-07 21:57:00,32.5,24.5,30.33,WNW,292,2.6,2.6,72,0.00,CLR,,0.36,WeatherDisplay:10.37,2013-12-08 02:57:00,
2013-12-07 22:02:00,32.5,24.5,30.33,North,0,0.5,1.2,72,0.00,CLR,,0.36,WeatherDisplay:10.37,2013-12-08 03:02:00,
2013-12-07 22:07:00,32.4,24.7,30.34,SSE,158,0.2,1.2,73,0.00,CLR,,0.36,WeatherDisplay:10.37,2013-12-08 03:07:00,
2013-12-07 22:12:00,32.2,24.2,30.34,North,0,1.2,2.3,72,0.00,CLR,,0.36,WeatherDisplay:10.37,2013-12-08 03:12:00,
2013-12-07 22:17:00,32.2,24.5,30.34,WSW,248,0.2,3.5,73,0.00,CLR,,0.36,WeatherDisplay:10.37,2013-12-08 03:17:00,
2013-12-07 22:22:00,32.0,24.3,30.34,NW,315,2.4,2.4,73,0.00,CLR,,0.36,WeatherDisplay:10.37,2013-12-08 03:22:00,
2013-12-07 22:27:00,32.0,24.3,30.34,West,270,1.6,1.6,73,0.00,CLR,,0.36,WeatherDisplay:10.37,2013-12-08 03:27:00,
2013-12-07 22:32:00,32.0,24.3,30.34,WNW,292,1.2,1.2,73,0.00,CLR,,0.36,WeatherDisplay:10.37,2013-12-08 03:32:00,
2013-12-07 22:37:00,32.0,24.3,30.34,West,270,0.5,2.3,73,0.00,CLR,,0.36,WeatherDisplay:10.37,2013-12-08 03:37:00,
2013-12-07 22:42:00,32.0,24.6,30.35,NW,315,3.1,3.1,74,0.00,CLR,,0.36,WeatherDisplay:10.37,2013-12-08 03:42:00,
2013-12-07 22:47:00,31.8,24.1,30.35,NW,315,0.5,1.2,73,0.00,CLR,,0.36,WeatherDisplay:10.37,2013-12-08 03:47:00,
2013-12-07 22:52:00,31.8,24.5,30.35,NNW,338,1.2,1.2,74,0.00,CLR,,0.36,WeatherDisplay:10.37,2013-12-08 03:52:00,
2013-12-07 22:57:00,31.8,24.5,30.35,WSW,248,0.2,1.2,74,0.00,CLR,,0.36,WeatherDisplay:10.37,2013-12-08 03:57:00,
2013-12-07 23:02:00,31.8,24.5,30.35,NW,315,0.2,2.3,74,0.00,CLR,,0.36,WeatherDisplay:10.37,2013-12-08 04:02:00,
2013-12-07 23:07:00,31.6,24.6,30.35,NW,315,0.0,1.2,75,0.00,CLR,,0.36,WeatherDisplay:10.37,2013-12-08 04:07:00,
2013-12-07 23:12:00,31.5,24.1,30.35,NNW,338,1.2,2.3,74,0.00,CLR,,0.36,WeatherDisplay:10.37,2013-12-08 04:12:00,
2013-12-07 23:17:00,31.5,24.1,30.36,West,270,0.7,2.3,74,0.00,CLR,,0.36,WeatherDisplay:10.37,2013-12-08 04:17:00,
2013-12-07 23:22:00,31.5,23.8,30.36,NW,315,1.2,4.6,73,0.00,CLR,,0.36,WeatherDisplay:10.37,2013-12-08 04:22:00,
2013-12-07 23:27:00,31.6,24.3,30.36,NW,315,0.2,2.3,74,0.00,CLR,,0.36,WeatherDisplay:10.37,2013-12-08 04:27:00,
2013-12-07 23:32:00,31.5,23.8,30.36,West,270,0.2,0.0,73,0.00,CLR,,0.36,WeatherDisplay:10.37,2013-12-08 04:32:00,
2013-12-07 23:37:00,31.5,24.1,30.36,West,270,0.9,0.9,74,0.00,CLR,,0.36,WeatherDisplay:10.37,2013-12-08 04:37:00,
2013-12-07 23:42:00,31.3,24.0,30.36,NW,315,0.5,0.5,74,0.00,CLR,,0.36,WeatherDisplay:10.37,2013-12-08 04:42:00,
2013-12-07 23:47:00,31.3,24.0,30.36,North,0,3.3,3.3,74,0.00,CLR,,0.36,WeatherDisplay:10.37,2013-12-08 04:47:00,
2013-12-07 23:52:00,31.1,24.1,30.37,North,0,1.6,1.6,75,0.00,CLR,,0.36,WeatherDisplay:10.37,2013-12-08 04:52:00,
2013-12-07 23:57:00,30.9,23.6,30.36,WNW,292,0.0,2.3,74,0.00,CLR,,0.36,WeatherDisplay:10.37,2013-12-08 04:57:00,